Location: Caltech
(34.1382°N, 118.1253°W)
Time: 11:13:55
(UTC-07:00)

Cosmos 2360 Rocket - Visible Passes

Search period start: 01 August 2015 00:00
Search period end: 11 August 2015 00:00
Orbit: 834 x 845 km, 71.0° (Epoch: 01 August)

Date Brightness Start Highest point End Pass type
(mag) Time Alt. Az. Time Alt. Az. Time Alt. Az.
07 Aug 4.6 05:30:55 10° SSE 05:35:02 22° ESE 05:39:21 10° NE visible
08 Aug 4.7 05:15:30 10° SE 05:19:25 20° ESE 05:23:34 10° NE visible
09 Aug 4.7 05:00:07 10° SE 05:03:49 19° ESE 05:07:46 10° ENE visible
10 Aug 4.7 04:44:44 10° SE 04:48:13 17° E 04:51:57 10° ENE visible
